Regional Weather Roundup
Issued by NWS

Home | Current Version | Previous Version | Text Only | Print | Product List | Glossary On
Versions: 1 2 3 4 5 6 7 8 9 10 11 12 13 14 15 16 17 18 19 20 21 22 23 24 25 26 27 28 29 30 31 32 33 34 35 36 37 38 39 40 41 42 43 44 45 46 47 48 49 50
000
ASUS44 KLIX 280711
RWRLA
LOUISIANA WEATHER ROUNDUP
NATIONAL WEATHER SERVICE NEW ORLEANS LA
200 AM CDT SUN AUG 28 2016

NOTE: "FAIR" INDICATES FEW OR NO CLOUDS BELOW 12,000 FEET WITH NO
      SIGNIFICANT WEATHER AND/OR OBSTRUCTIONS TO VISIBILITY.
      SKY/WX - SKY CONDITION AND SIGNIFICANT WEATHER.
      TMP - AIR TEMPERATURE.    DP   - DEWPOINT TEMPERATURE.
      RH  - RELATIVE HUMIDITY.  PRES - PRESSURE.
      HX  - HEAT INDEX.         WCI  - WIND CHILL INDEX.

*  THESE STATIONS ARE NOT NWS OR FAA STATIONS AND ARE NOT UNDER
   NWS QUALITY CONTROL.

LAZ040-048-061>063-065-066-069-280800-
SOUTHEAST LOUISIANA

CITY           SKY/WX    TMP DP  RH WIND       PRES   REMARKS
N.O. AUDUBON     N/A     83  78  86 MISG        N/A
N.O. INTL ARPT PTCLDY    81  76  84 CALM      29.96F
N.O. LAKEFRONT CLEAR     83  75  77 E6        29.97S
N.O. DOWNTOWN* FAIR      82  76  81 E6        29.97F
RESERVE*       FAIR      78  76  94 NE3       29.97F
SLIDELL        CLEAR     77  75  93 NE3       29.96F
BATON ROUGE    CLOUDY    75  74  96 NE5       29.97F
BOOTHVILLE     CLEAR     82  77  84 E5        29.95F
BELLE CHASSE   CLEAR     77  76  96 E5        29.96S
BOGALUSA*      FAIR      77  73  87 CALM      30.00F
GALLIANO*      MOSUNNY  N/A N/A N/A CALM      29.95F
NEW ROADS*     FAIR      74  74  99 CALM      29.97F
GONZALES*      PTSUNNY   75  75  99 CALM      29.96F
HAMMOND*       CLEAR     75  72  88 CALM      29.97F
HOUMA*         CLEAR     74  74  99 CALM      29.96S
PORT FOURCHON* MOSUNNY   84  75  74 E9        29.94F

$$

LAZ041-044-053-054-280800-
SOUTHWEST LOUISIANA

CITY           SKY/WX    TMP DP  RH WIND       PRES   REMARKS
LAKE CHARLES   CLEAR     74  73  97 NE7       29.96F
LAFAYETTE      CLEAR     76  73  91 CALM      29.97S
PATTERSON      CLEAR     75  74  96 CALM      29.96F
SALT POINT       N/A     76  74  93 CALM      29.94F
NEW IBERIA     CLEAR     76  73  91 NE5       29.97S
CHENAULT AIRPK CLEAR     73  73  98 NE5       29.96F

$$

LAZ027-028-280800-
CENTRAL LOUISIANA

CITY           SKY/WX    TMP DP  RH WIND       PRES   REMARKS
FORT POLK      CLOUDY    74  72  95 NE6       29.98F
ALEXANDRIA INT CLOUDY    74  73  97 CALM      29.97F
ALEXANDRIA     CLOUDY    74  74 100 CALM      29.99F

$$

LAZ001-002-280800-
NORTHWEST LOUISIANA

CITY           SKY/WX    TMP DP  RH WIND       PRES   REMARKS
SHREVEPORT     CLOUDY    76  73  91 NE3       30.00F
BARKSDALE AFB  CLOUDY    74  74 100 CALM      30.00F
DTN SHREVEPORT CLOUDY    76  72  87 CALM      30.00F

$$

LAZ014-016-280800-
NORTHEAST LOUISIANA

CITY           SKY/WX    TMP DP  RH WIND       PRES   REMARKS
MONROE         MOCLDY    77  75  93 N5        30.00F
TALLULAH       CLOUDY    78  75  90 CALM      29.99F

$$




USA.gov is the U.S. government's official web portal to all federal, state and local government web resources and services.